Minneapolis, MN

12:00 PM CDT on April 30, 2017 (GMT -0500)
Minneapolis-Saint Paul International

Weather History for KMSP - March, 2013

Change the Weather History Date:

Friday, March 29, 2013

  Actual Average Record
Temperature  
Mean Temperature 41 °F 39 °F  
Max Temperature 49 °F 48 °F 83 °F (1986)
Min Temperature 32 °F 29 °F -5 °F (1969)
Degree Days  
Heating Degree Days 24 26  
Month to date heating degree days 1115 948  
Since 1 July heating degree days 6649 6738  
Cooling Degree Days 0 0  
Month to date cooling degree days 0 0  
Year to date cooling degree days 0 0  
Moisture  
Dew Point 30 °F    
Average Humidity 67    
Maximum Humidity 79    
Minimum Humidity 54    
Precipitation  
Precipitation T in 0.07 in 0.79 in (1998)
Month to date precipitation 1.85 1.74  
Year to date precipitation 4.04 3.41  
Snow  
Snow 0.00 in 0.10 in 11.00 in (1924)
Month to date snowfall 13.8 9.9  
Since 1 July snowfall 49.3 51.6  
Snow Depth 2.00 in    
Sea Level Pressure  
Sea Level Pressure 30.24 in    
Wind  
Wind Speed 7 mph (SE)    
Max Wind Speed 13 mph    
Max Gust Speed 16 mph    
Visibility 9 miles    
Events Rain    
T = Trace of Precipitation, MM = Missing Value Source: NWS Daily Summary

Daily Weather History Graph

Daily Weather History Graph

Search for Another Location

Airport or City:

Trip Planner

Search our weather history database for the weather conditions in past years. The results will help you decide how hot, cold, wet, or windy it might be!

Date:

Astronomy

Mar. 29, 2013 Rise Set
Actual Time 6:58 AM CDT 7:37 PM CDT
Civil Twilight 6:29 AM CDT 8:06 PM CDT
Nautical Twilight 5:54 AM CDT 8:41 PM CDT
Astronomical Twilight 5:18 AM CDT 9:18 PM CDT
Moon 10:47 PM CDT (3/29) 8:00 AM CDT (3/29)
Length of Visible Light 13h 37m
Length of Day
12h 38m
Waning Gibbous, 93% of the Moon is Illuminated
Mar 29
Waning Gibbous
Apr 2
Last Quarter
Apr 10
New
Apr 18
First Quarter
Apr 25
Full

Hourly Weather History & Observations

Time (CDT) Temp. Windchill Dew Point Humidity Pressure Visibility Wind Dir Wind Speed Gust Speed Precip Events Conditions
12:53 AM 35.1 °F 31.0 °F 24.1 °F 64% 30.31 in 9.0 mi ESE 4.6 mph - N/A   Partly Cloudy
1:53 AM 33.1 °F 28.7 °F 23.0 °F 66% 30.31 in 10.0 mi ESE 4.6 mph - N/A   Partly Cloudy
2:53 AM 33.1 °F 28.7 °F 24.1 °F 70% 30.30 in 10.0 mi East 4.6 mph - N/A   Mostly Cloudy
3:53 AM 34.0 °F 29.8 °F 24.1 °F 67% 30.30 in 8.0 mi ESE 4.6 mph - N/A   Overcast
4:53 AM 33.1 °F 30.0 °F 25.0 °F 72% 30.30 in 7.0 mi ESE 3.5 mph - N/A   Overcast
5:53 AM 33.1 °F 28.7 °F 25.0 °F 72% 30.29 in 7.0 mi ESE 4.6 mph - N/A   Mostly Cloudy
6:53 AM 33.1 °F 28.7 °F 25.0 °F 72% 30.29 in 8.0 mi ESE 4.6 mph - N/A   Mostly Cloudy
7:53 AM 34.0 °F 26.6 °F 26.1 °F 73% 30.30 in 8.0 mi ESE 9.2 mph - N/A   Overcast
8:53 AM 36.0 °F 31.1 °F 26.1 °F 67% 30.30 in 8.0 mi SE 5.8 mph - N/A   Mostly Cloudy
9:53 AM 37.9 °F 34.4 °F 28.0 °F 68% 30.30 in 9.0 mi ESE 4.6 mph - N/A   Overcast
10:53 AM 37.9 °F 33.5 °F 28.0 °F 68% 30.30 in 9.0 mi ESE 5.8 mph - N/A   Overcast
11:53 AM 37.9 °F 32.7 °F 28.9 °F 70% 30.29 in 9.0 mi SSE 6.9 mph - 0.00 in Rain Light Rain
12:53 PM 41.0 °F 35.2 °F 30.9 °F 67% 30.27 in 9.0 mi SE 9.2 mph - 0.00 in   Mostly Cloudy
1:53 PM 46.0 °F 41.4 °F 32.0 °F 58% 30.25 in 10.0 mi SE 9.2 mph - N/A   Scattered Clouds
2:53 PM 48.9 °F - 32.0 °F 52% 30.22 in 10.0 mi SSE 11.5 mph - N/A   Partly Cloudy
3:53 PM 48.9 °F - 33.1 °F 54% 30.21 in 10.0 mi SE 10.4 mph - N/A   Scattered Clouds
4:53 PM 48.0 °F - 34.0 °F 58% 30.18 in 10.0 mi SE 10.4 mph - N/A   Overcast
5:53 PM 46.9 °F - 35.1 °F 63% 30.17 in 9.0 mi SE 8.1 mph - N/A   Partly Cloudy
6:53 PM 46.0 °F 41.9 °F 35.1 °F 66% 30.16 in 9.0 mi SE 8.1 mph - N/A   Scattered Clouds
7:53 PM 45.0 °F 40.6 °F 35.1 °F 68% 30.15 in 10.0 mi SSE 8.1 mph - N/A   Partly Cloudy
8:53 PM 41.0 °F 37.1 °F 34.0 °F 76% 30.14 in 9.0 mi SE 5.8 mph - N/A   Partly Cloudy
9:53 PM 41.0 °F 38.0 °F 34.0 °F 76% 30.14 in 9.0 mi SSE 4.6 mph - N/A   Overcast
10:53 PM 41.0 °F 39.0 °F 35.1 °F 79% 30.13 in 8.0 mi SE 3.5 mph - N/A   Overcast
11:53 PM 41.0 °F 36.4 °F 35.1 °F 79% 30.10 in 6.0 mi ESE 6.9 mph - N/A   Haze